Wetbulb
59.91 57.40 55.44 52.27 43.23 41.29 37.57 40.05 41.02 45.15 44.88 45.58 47.60 45.84 45.10 45.83 45.43 41.60 56.33 60.65 66.26 67.12 69.56 71.06 72.09 73.18 73.78 73.67 73.63 73.33 73.35 73.18 72.31 72.15 72.05 72.43 72.18 71.26 70.72 70.05 69.69 69.42 68.88 68.01 66.83 66.19 63.93 62.92 62.71
54.91 58.15 52.97 47.13 39.19 35.13 36.36 41.71 42.20 43.73 46.25 46.07 46.45 46.17 45.05 45.07 51.65 53.67 54.75 60.36 66.17 67.40 69.22 70.47 70.91 72.76 73.55 73.52 73.28 73.15 73.33 73.28 72.95 72.48 72.17 71.84 71.22 70.52 69.85 69.12 68.95 68.46 67.34 66.61 65.10 63.46 62.17 61.17 60.63
56.96 56.60 47.25 43.10 37.51 35.21 36.31 40.09 41.27 44.62 46.71 46.06 45.04 47.06 46.16 47.32 50.98 54.24 57.51 61.11 62.71 66.87 68.58 70.31 70.66 72.68 73.30 73.36 73.04 72.81 72.97 73.22 73.33 72.85 72.33 71.32 70.50 69.28 68.56 67.69 67.17 66.96 66.18 65.02 63.71 62.07 61.24 60.07 59.65
53.61 50.45 46.08 39.00 36.73 39.51 38.59 40.16 43.59 44.07 45.83 47.58 46.46 44.33 47.57 51.29 52.39 56.08 60.09 61.00 60.44 66.13 67.67 69.26 71.03 72.75 73.08 72.93 72.77 72.57 72.60 72.90 73.10 72.94 72.45 71.71 70.02 68.27 67.29 66.75 66.66 66.54 65.49 63.89 62.71 61.79 60.44 59.33 59.05
51.28 45.89 39.20 37.22 38.29 40.09 41.87 44.98 44.95 44.55 44.53 44.76 46.46 44.72 46.00 50.72 54.60 58.26 59.58 60.30 59.60 63.04 66.14 68.88 70.49 72.00 72.62 72.67 72.57 72.40 72.41 72.57 72.79 72.44 71.72 71.09 70.18 67.99 66.14 66.64 66.06 65.79 64.21 63.09 62.13 61.08 59.66 58.49 58.02
45.75 43.59 37.06 35.01 37.66 40.83 42.29 46.01 44.35 44.19 46.06 45.32 43.61 42.95 45.06 49.88 50.95 54.11 58.92 58.89 60.02 62.05 66.91 68.53 67.94 69.44 70.82 71.60 71.80 71.73 71.89 72.31 72.46 71.76 71.05 70.50 68.82 67.50 66.03 65.52 65.21 64.68 63.32 62.73 61.52 60.23 58.85 57.58 56.44
45.28 41.17 36.48 37.60 39.53 41.34 44.13 44.95 42.43 41.94 42.45 44.45 46.69 42.39 44.38 46.95 50.43 52.61 56.17 57.90 59.54 61.55 66.21 67.09 67.85 68.24 67.75 69.11 69.56 70.44 71.22 71.41 71.28 70.75 70.10 68.70 67.43 66.80 65.55 65.22 64.54 63.87 62.72 62.63 61.38 59.93 58.42 56.93 55.07
45.87 42.55 37.55 37.44 38.92 40.47 44.60 44.17 45.38 43.88 43.81 47.14 46.82 41.55 43.61 48.55 52.37 53.26 54.07 55.56 57.51 59.35 62.44 65.39 66.02 66.99 67.10 68.44 66.96 67.81 68.82 69.28 69.12 68.03 66.52 65.23 65.40 65.29 64.11 63.23 64.12 63.25 62.50 62.13 60.82 59.28 57.87 56.02 53.71
47.73 38.50 35.77 38.48 39.88 40.84 44.67 43.53 45.52 46.55 43.59 43.93 46.79 46.18 47.98 49.88 51.89 51.59 51.82 53.03 54.53 58.19 59.90 62.86 65.10 66.18 66.54 66.26 66.12 65.59 66.25 66.13 65.76 64.35 62.68 62.21 63.13 63.01 61.66 60.45 61.87 63.12 63.28 61.60 60.19 58.60 56.80 53.99 50.80
43.04 37.63 39.69 42.59 40.84 41.01 42.84 41.84 42.12 42.08 42.68 41.95 44.33 46.05 49.37 49.97 48.65 49.45 49.98 50.94 52.30 54.96 57.61 60.28 62.47 65.09 65.90 67.92 65.76 64.57 64.68 63.66 62.57 61.91 61.20 61.47 61.26 61.02 59.93 57.61 59.96 61.71 61.61 61.46 59.57 58.03 55.43 49.73 41.53
44.32 39.92 43.19 45.61 45.92 44.74 43.94 44.01 44.31 41.95 41.89 42.72 44.28 45.31 46.08 48.16 47.97 48.42 48.70 50.39 52.08 54.42 56.48 59.29 60.72 62.32 64.46 65.50 63.39 63.02 61.87 61.08 61.15 60.47 60.01 59.81 59.83 59.84 58.59 55.10 55.72 55.32 55.60 54.10 53.99 51.79 46.80 44.63 41.90
40.77 45.42 45.88 46.63 46.31 45.46 44.07 44.44 43.87 43.79 45.59 46.47 46.55 47.28 46.18 46.73 46.06 47.62 47.69 48.22 48.65 51.59 55.49 58.24 59.91 60.89 61.46 62.83 62.95 62.82 62.41 60.77 60.11 59.59 59.37 58.54 57.86 57.45 55.59 53.08 52.94 51.86 50.68 49.53 47.55 45.85 44.06 41.23 41.62
40.96 42.51 45.26 45.90 45.56 44.41 45.47 43.10 43.35 43.70 47.38 47.66 47.28 47.26 46.09 46.16 46.41 46.49 47.97 48.43 48.87 48.86 51.87 56.27 58.30 59.93 61.12 60.87 60.69 61.94 62.50 62.14 60.62 59.98 59.34 58.99 57.26 55.68 54.41 51.99 52.12 50.33 49.12 47.93 45.67 43.56 40.95 40.80 40.94
42.14 42.69 43.01 44.45 44.82 44.36 43.36 41.76 42.57 44.76 45.10 45.75 46.03 45.19 44.95 45.42 46.38 45.77 46.59 47.71 47.81 49.33 49.55 53.96 57.21 57.80 59.38 59.55 59.62 59.33 59.45 59.56 59.29 59.07 60.01 58.32 58.07 55.44 53.90 51.40 51.69 51.05 49.21 47.61 45.08 42.21 40.39 39.85 39.64
42.87 39.85 41.51 42.68 43.13 42.61 43.36 40.23 41.39 45.07 44.36 45.26 44.59 43.58 45.74 46.45 46.21 45.15 46.16 46.44 46.14 47.81 48.88 51.17 55.74 56.50 57.68 58.01 58.69 58.41 58.56 58.32 57.90 58.02 58.06 58.08 56.28 53.95 52.30 50.28 50.13 50.74 48.33 46.58 42.66 40.88 40.09 39.15 39.46
39.82 36.92 34.27 41.63 42.29 42.40 41.22 35.88 42.69 44.97 43.38 45.42 43.88 42.83 44.26 44.81 45.08 45.61 46.15 46.08 46.39 47.10 47.25 49.31 53.71 55.66 55.81 56.69 57.13 57.93 57.24 56.72 56.72 56.66 56.84 57.04 55.29 53.34 50.86 49.78 49.17 48.92 46.75 44.46 41.17 39.57 38.55 38.04 37.59
35.91 31.34 34.28 38.72 42.99 41.34 38.76 35.51 42.75 44.80 42.76 43.10 40.65 42.91 43.53 43.72 44.07 44.50 45.01 44.70 44.93 45.42 46.16 46.90 49.53 52.17 54.31 54.94 55.94 56.22 56.27 55.60 55.29 55.03 55.03 55.20 54.98 53.25 50.64 49.07 48.30 47.66 45.15 41.96 40.83 38.17 37.60 36.21 36.03
31.93 30.98 34.04 33.45 40.53 39.47 37.84 36.97 40.86 43.71 44.02 41.44 40.40 41.58 42.38 41.71 42.00 43.54 43.61 43.91 43.84 44.09 44.55 45.57 46.46 47.42 49.99 50.78 51.82 52.63 53.47 53.86 53.90 53.37 53.71 53.93 53.79 53.20 49.92 47.43 47.16 46.10 42.95 40.27 38.75 37.93 36.99 36.32 35.86
34.97 34.34 32.77 36.83 41.53 38.30 38.41 37.75 40.23 43.37 42.59 40.26 42.01 41.23 40.45 40.35 41.84 42.33 42.63 42.71 42.85 42.76 42.38 42.70 43.39 44.61 45.35 47.60 48.13 48.48 49.08 50.54 51.74 52.46 52.75 52.30 52.07 51.95 50.27 47.14 45.51 44.25 42.33 40.82 39.20 37.22 36.55 35.79 34.91
37.21 34.67 33.52 37.28 40.87 38.67 37.52 36.50 41.18 43.00 41.59 39.99 39.72 38.95 39.44 39.80 39.49 39.75 39.99 40.50 40.79 41.08 41.54 41.64 41.98 42.31 43.20 44.71 45.77 47.38 47.55 48.09 48.96 49.44 50.84 51.61 51.05 50.32 49.32 47.39 44.48 42.80 39.68 38.42 38.02 37.41 35.13 35.54 35.18
35.53 34.12 33.76 34.84 37.41 37.98 35.50 33.65 37.27 40.30 39.80 40.02 39.68 39.67 39.20 38.24 37.51 38.00 38.07 37.40 38.17 38.52 38.94 40.12 40.97 41.61 41.46 42.15 43.49 43.83 44.25 44.56 44.32 44.90 45.46 47.34 49.86 49.36 48.07 47.00 44.98 42.34 40.11 38.97 37.77 37.11 36.36 34.82 34.82
33.30 39.04 37.76 35.89 31.77 28.98 34.61 25.87 34.79 37.12 35.54 36.64 36.79 36.37 36.63 37.09 37.76 37.85 37.35 37.04 36.89 36.42 37.54 37.96 38.59 39.55 40.96 40.87 39.95 38.68 38.88 38.38 39.78 40.98 42.19 43.04 45.06 47.33 47.71 46.75 45.03 42.89 40.10 38.14 37.37 38.01 37.32 35.25 33.74
36.00 37.65 35.45 34.03 30.75 29.45 30.68 27.09 32.07 35.57 32.75 34.13 34.82 35.79 36.03 36.54 36.95 36.35 36.21 37.07 37.31 37.02 35.80 35.80 36.88 37.48 38.05 38.90 38.92 38.13 37.00 37.73 38.00 38.97 38.96 39.93 40.93 42.29 44.58 45.54 44.64 42.74 40.69 39.06 37.62 36.78 36.00 36.15 36.08
38.85 35.28 34.57 32.28 30.37 25.08 31.02 29.50 30.60 32.04 34.74 34.14 35.12 35.75 36.76 36.77 36.63 36.57 36.99 36.71 36.03 35.66 35.25 35.39 35.57 35.75 36.24 36.32 36.85 36.83 35.99 35.87 35.93 36.11 36.42 37.26 38.51 39.63 40.05 41.33 42.25 42.39 41.25 39.47 37.74 37.32 36.53 37.98 37.79
35.22 32.04 26.10 24.35 23.13 24.67 32.44 29.11 32.55 34.88 36.58 35.79 34.95 34.98 35.64 35.82 34.36 33.83 34.19 34.41 34.47 33.85 34.41 36.17 35.52 35.08 35.41 35.04 35.25 35.18 35.12 34.71 34.68 34.80 34.98 34.95 35.76 36.43 37.07 37.85 38.42 39.88 40.67 40.43 39.03 36.82 36.63 36.47 37.49
34.08 35.19 28.60 18.44 22.22 25.28 31.23 26.64 32.95 35.89 36.74 36.32 35.36 34.29 34.09 32.31 32.44 32.07 32.50 32.59 32.88 33.02 32.92 33.24 33.60 33.26 33.51 33.55 34.03 34.59 34.91 34.38 34.26 34.26 34.59 34.32 34.37 34.67 35.93 36.13 36.16 36.58 38.16 39.26 38.98 37.25 36.02 35.29 36.39
35.06 31.79 36.24 29.53 18.78 20.53 26.37 31.27 34.69 36.07 34.15 33.70 33.18 32.64 31.09 31.10 31.06 30.97 31.14 31.10 30.95 31.18 31.31 31.73 31.69 31.95 31.73 31.72 32.18 32.67 33.43 32.54 31.56 31.54 32.07 32.36 32.50 33.70 34.64 34.46 33.99 34.80 34.98 35.95 36.70 36.46 34.59 34.00 34.63
36.55 36.56 28.56 27.93 16.36 12.49 23.27 24.72 27.38 31.26 31.23 32.43 31.46 30.55 30.66 31.05 30.12 29.78 29.85 30.39 30.51 30.11 30.20 30.62 30.84 30.82 30.62 30.43 30.12 31.23 31.20 31.72 30.74 30.09 28.96 29.34 30.49 31.01 31.38 32.54 33.07 33.61 33.92 33.96 33.69 34.38 33.92 33.06 35.11
32.67 30.51 31.77 31.72 28.35 20.86 17.56 23.05 32.52 33.30 31.81 30.53 31.73 32.66 30.82 30.54 28.73 28.85 29.69 30.57 31.29 31.98 31.57 31.57 31.41 31.18 30.76 30.44 29.28 29.01 29.57 30.19 30.06 28.35 28.12 28.37 28.39 28.85 29.38 30.48 31.11 31.66 31.94 32.25 31.84 31.97 32.39 32.64 33.94
35.07 31.83 32.26 26.04 24.65 27.07 27.48 27.62 35.73 33.18 32.32 32.52 31.92 32.29 31.14 31.42 29.06 27.98 28.94 29.66 30.46 30.61 30.75 30.27 30.37 30.12 30.39 30.67 29.85 29.06 28.89 29.36 29.14 28.31 27.77 27.50 26.69 27.54 27.61 28.46 29.14 29.66 30.23 30.28 30.08 30.44 31.64 31.84 32.40
MSLP
1014.59 1014.16 1014.61 1014.81 1016.22 1016.51 1015.63 1014.34 1013.35 1013.09 1012.94 1012.80 1012.70 1012.86 1013.14 1013.31 1013.56 1014.41 1013.96 1013.89 1014.34 1014.92 1015.25 1015.56 1015.78 1016.03 1016.30 1016.64 1016.98 1017.34 1017.69 1017.96 1018.20 1018.46 1018.69 1018.84 1018.99 1019.27 1019.59 1019.88 1020.06 1020.11 1020.22 1020.44 1020.47 1020.58 1020.74 1020.73 1020.82
1014.64 1014.24 1014.74 1015.58 1016.38 1016.36 1015.26 1013.83 1013.37 1012.74 1012.55 1012.47 1012.54 1012.61 1012.93 1013.17 1013.22 1013.82 1014.05 1013.86 1014.12 1014.54 1015.13 1015.56 1015.84 1016.07 1016.35 1016.60 1016.89 1017.25 1017.60 1017.92 1018.21 1018.54 1018.79 1018.97 1019.08 1019.47 1019.87 1020.14 1020.20 1020.34 1020.51 1020.66 1020.68 1020.85 1020.93 1020.98 1020.99
1014.71 1014.61 1015.67 1016.00 1016.33 1015.47 1014.42 1013.56 1012.94 1012.57 1012.34 1012.40 1012.60 1012.43 1012.59 1012.90 1013.24 1013.55 1013.47 1013.61 1014.02 1014.56 1014.99 1015.44 1015.88 1016.12 1016.36 1016.69 1017.01 1017.29 1017.54 1017.84 1018.15 1018.44 1018.70 1018.94 1019.16 1019.70 1020.02 1020.23 1020.35 1020.46 1020.69 1020.78 1020.84 1020.97 1021.06 1021.17 1021.16
1014.91 1015.25 1016.08 1016.07 1015.68 1014.22 1013.45 1013.01 1012.59 1012.49 1012.61 1012.46 1012.59 1012.94 1012.70 1012.51 1012.85 1013.23 1013.47 1013.72 1014.18 1014.60 1014.83 1015.28 1015.78 1016.10 1016.43 1016.74 1017.03 1017.30 1017.56 1017.79 1018.03 1018.32 1018.60 1018.74 1018.98 1019.65 1020.11 1020.29 1020.43 1020.57 1020.77 1020.82 1020.97 1021.13 1021.25 1021.41 1021.45
1015.36 1016.15 1016.55 1016.28 1015.03 1013.59 1012.82 1012.46 1012.43 1012.56 1012.56 1012.69 1012.73 1013.00 1013.02 1013.15 1013.44 1013.41 1013.73 1013.92 1014.17 1014.64 1014.81 1015.19 1015.63 1016.04 1016.35 1016.67 1017.02 1017.31 1017.56 1017.81 1018.05 1018.30 1018.59 1018.77 1018.89 1019.50 1020.03 1020.29 1020.47 1020.63 1020.72 1020.84 1021.07 1021.30 1021.48 1021.54 1021.59
1016.14 1016.54 1016.92 1016.37 1014.91 1013.45 1012.63 1012.19 1012.43 1012.61 1012.57 1012.72 1012.86 1013.11 1013.34 1013.55 1013.85 1013.94 1013.85 1014.03 1014.16 1014.58 1014.81 1015.06 1015.45 1015.86 1016.21 1016.59 1016.89 1017.13 1017.44 1017.75 1017.99 1018.25 1018.50 1018.70 1018.93 1019.59 1020.11 1020.42 1020.60 1020.73 1020.85 1020.98 1021.22 1021.43 1021.53 1021.63 1021.70
1016.37 1017.04 1016.99 1016.05 1014.82 1013.66 1012.91 1012.39 1012.58 1012.81 1012.82 1012.85 1012.89 1013.23 1013.72 1013.94 1013.98 1013.99 1014.04 1014.13 1014.19 1014.39 1014.84 1015.19 1015.52 1015.78 1016.02 1016.40 1016.75 1017.08 1017.39 1017.66 1017.90 1018.20 1018.54 1018.58 1019.13 1019.62 1020.06 1020.42 1020.62 1020.77 1020.88 1021.03 1021.22 1021.48 1021.66 1021.81 1021.83
1016.18 1017.03 1016.92 1015.90 1014.97 1013.92 1012.95 1012.65 1012.58 1012.73 1012.84 1012.52 1012.67 1013.37 1013.64 1013.70 1013.84 1013.88 1013.97 1014.22 1014.36 1014.56 1014.70 1015.05 1015.37 1015.72 1016.10 1016.33 1016.58 1016.95 1017.33 1017.62 1017.92 1018.20 1018.54 1018.66 1019.32 1019.69 1020.08 1020.54 1020.74 1020.86 1020.96 1021.19 1021.49 1021.72 1021.81 1021.95 1022.07
1016.03 1017.10 1017.03 1015.93 1015.16 1014.49 1013.73 1013.52 1013.18 1012.85 1012.91 1012.84 1012.93 1012.96 1012.93 1013.47 1013.83 1014.11 1014.22 1014.43 1014.61 1014.62 1014.70 1014.74 1015.06 1015.46 1015.83 1016.22 1016.44 1016.66 1017.05 1017.37 1017.74 1018.17 1018.55 1018.72 1019.44 1019.94 1020.33 1020.81 1020.97 1021.04 1021.09 1021.33 1021.65 1021.90 1022.11 1022.33 1022.44
1016.60 1017.22 1016.44 1015.36 1015.06 1014.79 1014.43 1014.34 1014.21 1013.74 1013.51 1013.32 1013.13 1012.87 1013.08 1013.59 1013.97 1014.10 1014.34 1014.40 1014.53 1014.62 1014.58 1014.70 1014.82 1015.14 1015.52 1015.84 1016.19 1016.63 1017.01 1017.35 1017.76 1018.10 1018.37 1018.67 1019.15 1019.95 1020.39 1020.82 1020.99 1021.16 1021.27 1021.44 1021.71 1021.95 1022.24 1022.55 1022.69
1016.27 1016.56 1015.78 1015.02 1014.80 1014.72 1014.55 1014.33 1014.30 1014.32 1014.02 1013.31 1013.41 1013.11 1013.26 1013.46 1013.76 1013.78 1013.79 1014.03 1013.83 1013.64 1013.85 1014.07 1014.44 1014.67 1015.12 1015.55 1016.09 1016.56 1016.95 1017.36 1017.68 1017.96 1018.25 1018.59 1018.97 1019.60 1020.23 1020.69 1020.90 1021.13 1021.25 1021.60 1021.78 1022.01 1022.38 1022.51 1022.58
1015.95 1015.67 1015.49 1015.07 1014.83 1014.89 1014.73 1014.62 1014.67 1014.67 1013.59 1013.21 1013.15 1013.00 1012.84 1013.01 1013.29 1013.30 1013.30 1013.31 1013.21 1013.24 1013.31 1013.54 1013.85 1014.32 1014.68 1015.09 1015.63 1016.13 1016.68 1017.17 1017.54 1017.86 1018.16 1018.53 1018.91 1019.30 1020.06 1020.61 1020.77 1021.06 1021.26 1021.58 1021.89 1022.20 1022.36 1022.50 1022.41
1015.62 1015.50 1015.38 1015.12 1014.94 1014.80 1014.67 1014.80 1014.89 1014.35 1013.09 1013.04 1012.94 1012.89 1012.90 1012.98 1012.67 1012.51 1012.32 1012.17 1012.35 1012.67 1012.71 1012.96 1013.44 1013.82 1014.13 1014.72 1015.19 1015.65 1016.00 1016.34 1016.86 1017.38 1017.70 1018.04 1018.54 1019.00 1019.58 1020.31 1020.60 1020.98 1021.33 1021.64 1022.07 1022.33 1022.50 1022.53 1022.42
1015.66 1015.59 1015.53 1015.10 1014.67 1014.63 1014.78 1014.65 1014.75 1013.43 1013.10 1012.98 1012.86 1013.02 1013.12 1013.08 1012.65 1012.37 1012.16 1011.96 1012.00 1011.98 1012.27 1012.54 1013.14 1013.76 1014.12 1014.80 1015.11 1015.64 1016.04 1016.44 1016.85 1017.17 1017.40 1017.75 1018.13 1018.64 1019.17 1019.96 1020.23 1020.51 1020.73 1021.04 1021.50 1021.99 1022.43 1022.62 1022.55
1015.77 1015.97 1015.53 1014.70 1014.13 1014.35 1014.17 1014.79 1014.33 1013.33 1013.17 1012.93 1012.98 1013.25 1013.08 1013.01 1013.60 1013.83 1013.51 1013.24 1012.79 1012.76 1012.51 1012.68 1012.92 1013.44 1014.07 1014.58 1014.91 1015.37 1015.81 1016.22 1016.66 1016.98 1017.32 1017.70 1018.18 1018.65 1019.20 1019.89 1020.24 1020.37 1020.74 1021.14 1021.57 1021.80 1021.94 1022.17 1022.31
1016.27 1016.45 1016.13 1014.47 1014.32 1014.52 1014.44 1014.49 1013.90 1013.30 1013.33 1012.92 1013.16 1013.58 1013.63 1014.78 1015.19 1015.14 1014.65 1014.32 1013.92 1013.40 1013.17 1013.05 1013.36 1013.79 1014.25 1014.68 1015.04 1015.51 1015.88 1016.23 1016.62 1016.97 1017.19 1017.49 1017.86 1018.24 1018.84 1019.48 1019.94 1020.24 1020.71 1021.10 1021.54 1021.97 1022.42 1022.46 1022.44
1016.86 1016.66 1016.20 1015.23 1014.51 1014.74 1014.98 1014.91 1013.90 1013.13 1013.36 1013.47 1013.64 1013.89 1014.95 1015.97 1016.05 1016.45 1016.51 1015.95 1015.49 1014.98 1014.37 1014.11 1014.21 1014.56 1014.89 1015.16 1015.31 1015.65 1015.98 1016.36 1016.71 1016.95 1017.27 1017.50 1017.78 1018.11 1018.64 1019.27 1019.66 1020.00 1020.61 1021.14 1021.57 1022.05 1022.37 1022.80 1022.84
1017.14 1017.00 1016.34 1015.92 1015.10 1014.89 1015.03 1014.71 1014.31 1013.59 1012.96 1013.63 1013.97 1014.76 1016.16 1016.85 1017.45 1017.32 1017.34 1017.38 1016.76 1016.35 1016.00 1015.57 1015.64 1015.74 1015.66 1015.75 1016.05 1016.46 1016.67 1016.86 1017.02 1017.20 1017.29 1017.49 1017.80 1018.11 1018.51 1018.98 1019.34 1019.75 1020.43 1020.98 1021.37 1021.70 1022.22 1022.63 1023.02
1016.87 1016.85 1016.64 1015.98 1015.32 1015.18 1015.02 1014.75 1014.40 1013.31 1013.29 1013.77 1014.40 1016.00 1017.07 1017.93 1018.66 1018.46 1018.53 1018.38 1018.04 1017.51 1017.36 1017.44 1017.21 1017.26 1016.85 1016.67 1016.91 1017.22 1017.62 1017.59 1017.64 1017.56 1017.49 1017.67 1017.92 1018.11 1018.47 1018.90 1019.27 1019.59 1020.03 1020.35 1020.76 1021.29 1021.91 1022.49 1022.74
1016.91 1016.90 1016.60 1016.00 1015.44 1015.56 1015.22 1015.10 1014.01 1013.03 1013.68 1014.41 1015.87 1017.29 1018.20 1018.85 1019.12 1019.80 1019.77 1019.53 1019.36 1019.46 1019.15 1018.75 1018.71 1018.57 1018.36 1018.06 1017.90 1017.86 1017.87 1018.02 1018.12 1018.11 1018.01 1018.04 1018.09 1018.22 1018.47 1018.71 1019.24 1019.57 1020.06 1020.43 1020.68 1020.91 1021.49 1021.73 1022.02
1016.55 1016.67 1016.53 1016.58 1016.22 1015.77 1015.75 1015.47 1014.59 1014.93 1015.46 1016.02 1017.38 1018.18 1019.02 1019.80 1020.13 1020.48 1020.60 1020.68 1020.66 1020.62 1020.58 1020.28 1019.97 1019.77 1019.51 1019.19 1018.79 1018.62 1018.62 1018.66 1018.94 1018.89 1018.75 1018.62 1018.35 1018.26 1018.44 1018.65 1018.92 1019.38 1019.80 1020.21 1020.43 1020.72 1021.05 1021.63 1021.79
1016.49 1016.01 1016.27 1016.61 1017.04 1017.13 1016.67 1016.68 1015.56 1015.37 1017.03 1017.86 1018.70 1019.19 1019.86 1020.57 1020.87 1021.28 1021.71 1021.65 1021.72 1021.99 1021.77 1021.56 1021.32 1020.93 1020.67 1020.48 1020.23 1020.20 1020.36 1020.61 1020.65 1020.32 1019.85 1019.35 1018.90 1018.77 1018.33 1018.46 1018.81 1019.07 1019.47 1019.75 1019.86 1020.14 1020.55 1020.95 1021.57
1016.30 1016.22 1016.46 1016.77 1017.46 1017.99 1017.48 1017.86 1016.05 1016.40 1018.05 1018.97 1020.02 1020.48 1020.81 1020.95 1021.48 1022.13 1022.44 1022.51 1022.42 1022.24 1022.27 1022.08 1021.93 1021.82 1021.60 1021.31 1021.34 1021.36 1021.27 1021.23 1020.96 1020.80 1020.61 1020.21 1019.58 1019.18 1019.08 1018.87 1018.66 1018.95 1019.23 1019.34 1019.40 1019.59 1019.96 1020.19 1020.43
1016.00 1016.79 1017.07 1017.56 1018.37 1018.81 1018.28 1017.93 1016.81 1017.01 1017.37 1019.38 1020.72 1021.25 1021.80 1022.16 1022.26 1022.42 1022.67 1022.81 1022.96 1023.00 1023.00 1022.69 1022.69 1022.57 1022.46 1022.12 1021.91 1022.07 1021.98 1021.75 1021.35 1021.28 1021.17 1021.19 1020.84 1020.21 1019.81 1019.62 1019.30 1019.07 1018.80 1019.16 1019.02 1018.99 1019.10 1019.31 1019.47
1016.38 1017.30 1018.28 1018.89 1019.49 1019.03 1018.37 1018.53 1017.15 1017.11 1017.94 1019.35 1020.74 1021.77 1022.34 1022.84 1023.09 1023.41 1023.55 1023.44 1023.58 1023.57 1023.73 1023.44 1023.35 1023.20 1023.11 1022.85 1022.49 1022.50 1022.66 1022.24 1022.04 1021.97 1022.10 1022.04 1021.80 1021.23 1020.56 1020.41 1020.17 1019.66 1018.94 1018.86 1018.60 1018.61 1018.54 1018.67 1018.69
1016.33 1017.03 1018.15 1019.02 1019.94 1019.58 1018.93 1018.80 1018.22 1018.57 1019.06 1020.37 1021.37 1022.05 1022.81 1023.33 1023.71 1024.08 1024.20 1024.45 1024.50 1024.44 1024.50 1024.51 1024.28 1024.33 1023.98 1023.54 1023.27 1023.17 1022.77 1023.03 1022.67 1022.14 1022.01 1022.34 1022.30 1022.18 1021.49 1020.81 1020.27 1019.74 1019.25 1019.14 1018.65 1018.10 1017.99 1018.04 1018.09
1016.11 1016.89 1017.45 1018.79 1020.34 1020.52 1019.36 1018.84 1019.48 1019.68 1020.12 1020.97 1021.84 1022.46 1023.11 1023.55 1023.89 1024.35 1024.54 1024.69 1024.89 1024.95 1024.93 1024.90 1024.90 1024.95 1024.89 1024.64 1024.41 1023.98 1024.09 1024.20 1023.14 1022.12 1022.46 1022.46 1022.33 1021.92 1021.44 1021.00 1020.43 1019.86 1019.69 1019.54 1018.66 1018.03 1017.67 1017.44 1017.29
1016.18 1016.82 1018.04 1019.39 1020.78 1020.80 1019.63 1019.19 1019.08 1020.03 1020.66 1021.27 1021.99 1022.65 1023.15 1023.49 1023.96 1024.40 1024.61 1024.82 1024.88 1025.01 1025.05 1025.06 1025.01 1025.02 1024.81 1024.68 1024.52 1024.59 1024.74 1024.06 1023.19 1022.85 1022.91 1023.00 1022.71 1022.00 1021.51 1020.91 1020.50 1020.14 1019.66 1018.93 1018.39 1017.86 1017.43 1017.13 1016.80
1017.39 1017.68 1018.44 1019.35 1020.20 1020.52 1020.19 1019.08 1018.21 1019.35 1020.64 1021.52 1022.06 1022.32 1022.83 1023.47 1023.96 1024.20 1024.34 1024.53 1024.70 1024.81 1024.94 1024.97 1024.90 1024.81 1024.77 1024.45 1024.32 1024.23 1023.92 1023.60 1023.22 1023.09 1022.93 1022.86 1022.53 1022.14 1021.74 1021.35 1020.77 1020.13 1019.45 1018.81 1018.17 1017.51 1016.89 1016.74 1016.29
1017.85 1018.32 1019.03 1020.31 1020.83 1020.57 1020.17 1018.86 1018.40 1019.41 1020.40 1021.01 1021.50 1022.07 1022.54 1023.00 1023.60 1023.95 1024.07 1024.17 1024.19 1024.28 1024.34 1024.42 1024.42 1024.31 1024.15 1023.96 1023.88 1023.68 1023.39 1023.32 1023.18 1022.63 1022.40 1022.13 1022.07 1021.85 1021.55 1021.14 1020.93 1020.10 1019.35 1018.80 1017.98 1017.27 1016.72 1016.06 1015.70
Wind_Speed
7 8 1 5 6 6 4 2 3 5 3 0 0 3 4 3 3 4 3 8 11 12 12 13 15 16 15 15 15 14 13 12 13 11 10 11 13 12 10 11 9 8 8 7 7 7 6 7 6
4 5 5 2 5 4 5 1 3 4 4 1 2 0 1 1 4 4 4 8 11 12 12 10 12 15 15 15 15 15 13 13 14 13 12 11 12 11 9 6 6 5 5 5 5 5 5 6 5
4 1 4 4 3 3 3 2 2 1 4 2 2 1 2 3 3 8 4 8 9 10 12 10 11 14 15 16 15 14 14 13 14 14 14 13 14 9 7 4 3 3 4 4 5 5 5 5 5
3 6 5 4 3 2 2 1 2 3 2 2 2 4 4 1 5 7 8 8 7 10 12 13 13 13 14 15 15 14 13 12 12 14 12 11 14 9 5 4 5 5 5 5 5 5 5 4 4
4 3 3 2 5 2 3 3 3 1 3 2 3 4 5 3 6 8 8 6 7 8 8 12 15 13 14 14 14 14 12 11 12 12 13 9 13 11 8 7 7 7 6 6 6 6 5 5 4
4 3 4 1 5 3 3 5 2 2 2 3 2 1 2 3 4 4 8 7 6 7 7 10 15 13 12 13 13 13 12 11 12 14 13 12 10 7 9 8 7 7 7 7 6 6 5 5 5
2 4 3 3 5 5 2 2 3 1 4 3 2 0 2 2 1 5 7 6 6 7 7 6 8 11 12 12 11 11 11 11 11 14 12 10 9 10 10 9 8 8 8 9 9 8 7 6 5
4 4 4 4 3 5 5 3 4 3 5 2 2 2 3 6 7 6 5 6 6 5 8 8 7 7 6 8 13 12 11 11 12 11 10 11 10 8 9 7 7 9 9 9 8 7 7 5 4
3 4 2 4 6 6 5 5 6 2 2 0 4 5 4 5 6 5 3 1 3 3 7 8 8 8 7 6 6 10 12 11 12 9 9 11 5 4 6 4 6 7 8 9 8 7 6 4 2
5 4 6 3 1 3 3 2 4 4 8 5 5 4 5 5 4 7 6 7 6 6 6 7 8 9 8 7 6 5 5 5 5 6 6 5 6 4 5 6 8 8 7 8 9 8 7 5 1
5 5 4 7 4 1 4 8 6 5 8 6 9 6 3 7 7 8 8 9 11 10 5 9 8 8 9 7 4 3 3 3 4 6 6 6 4 5 4 3 3 3 6 3 4 3 2 3 2
3 8 7 5 3 4 5 2 7 6 16 7 10 9 5 8 8 10 10 9 7 9 11 9 9 9 8 6 6 6 6 4 4 5 7 5 3 5 4 4 5 5 4 5 5 3 4 4 3
5 4 3 7 8 7 5 5 7 10 17 12 12 10 10 8 9 7 10 9 9 9 9 11 9 9 9 7 5 6 7 7 7 6 7 6 5 5 5 5 4 5 4 4 4 4 3 4 3
4 3 6 7 12 6 7 4 0 10 6 10 8 8 7 8 9 7 8 9 8 8 8 8 9 7 7 6 6 5 4 5 5 5 7 7 6 5 7 5 6 6 6 5 6 6 5 4 3
3 5 8 11 8 8 7 5 9 13 5 10 7 6 9 10 15 13 11 15 8 4 4 6 9 8 8 7 6 4 4 4 4 5 6 7 5 6 6 5 4 5 4 5 4 4 4 4 4
4 1 4 7 3 3 4 8 9 10 5 14 7 8 8 13 12 14 14 14 14 12 12 5 4 7 7 7 5 4 3 3 3 3 4 6 7 7 6 5 5 4 4 5 5 4 3 4 4
2 4 5 7 2 3 3 6 10 9 6 11 5 7 11 12 17 18 17 15 15 14 15 15 9 6 4 4 3 3 3 2 2 2 3 6 6 7 6 5 5 6 4 4 4 2 2 3 2
6 4 4 3 5 1 5 10 10 13 11 8 7 6 13 14 14 15 18 17 17 17 17 16 14 14 8 5 5 4 4 2 2 1 2 4 4 6 5 4 5 5 4 4 3 4 3 3 3
3 4 5 6 8 6 9 7 9 16 10 6 8 18 12 15 13 17 17 17 18 19 19 18 17 14 10 5 4 3 2 3 3 2 0 2 4 6 6 4 5 5 6 7 7 4 6 3 3
7 6 6 5 5 3 8 9 17 16 7 2 17 12 12 11 16 16 16 16 17 16 16 17 16 15 11 8 4 4 3 3 2 3 4 4 2 4 5 6 5 6 4 5 6 6 3 4 7
4 4 4 6 4 6 5 7 7 8 15 18 15 15 15 13 14 13 14 13 13 14 13 14 14 14 13 11 8 7 5 4 5 5 4 5 6 3 5 6 5 5 5 6 6 6 7 6 5
4 7 5 4 3 3 3 6 9 3 13 12 11 12 12 12 13 12 12 13 12 9 8 10 12 13 12 13 10 10 6 5 4 3 3 6 8 7 4 5 6 6 4 6 6 6 6 4 7
6 2 3 2 2 2 6 2 9 8 6 6 7 10 11 11 11 11 10 10 9 8 8 7 9 12 11 11 11 8 9 5 3 7 10 11 8 9 8 6 5 5 5 6 7 6 7 6 6
4 2 3 2 3 1 6 6 7 4 9 7 7 10 10 9 8 8 7 8 9 8 8 8 8 10 9 9 10 11 11 10 9 10 9 8 8 8 9 9 6 6 5 6 6 8 8 11 10
4 5 3 4 2 6 3 2 7 6 7 15 15 12 10 8 8 8 9 8 9 10 9 9 10 12 12 11 10 9 7 7 7 7 6 8 8 8 10 10 10 7 6 6 6 6 8 9 10
6 7 5 6 4 5 8 5 3 10 16 15 13 11 8 8 7 7 7 7 7 8 8 8 8 8 9 11 12 9 10 6 4 5 5 5 5 6 8 10 9 9 9 8 7 4 6 7 9
4 4 3 2 2 4 5 3 6 10 12 10 10 9 7 7 7 7 7 6 6 5 5 5 6 4 4 5 5 7 7 7 7 8 7 6 6 8 9 8 8 9 7 8 8 6 6 7 8
1 2 2 3 1 4 4 4 5 9 9 8 7 7 6 6 7 6 5 5 4 4 4 5 4 3 2 2 2 1 4 4 4 4 6 7 8 10 11 11 9 9 9 8 7 7 6 7 7
2 0 2 3 5 5 3 6 1 12 9 8 7 8 7 6 6 5 4 4 4 3 2 0 1 1 1 2 2 4 5 6 4 3 4 5 6 8 10 10 11 11 10 10 8 8 8 10 10
5 4 5 4 4 3 0 10 8 12 10 7 7 7 7 6 7 6 6 4 1 1 2 2 2 3 3 3 3 5 5 6 6 6 6 6 6 6 7 8 9 11 10 10 10 10 9 10 11
Wind_Direction
313 298 109 34 52 64 296 284 81 31 48 112 328 100 212 214 205 210 233 185 134 150 161 163 163 161 156 152 148 150 153 154 153 152 145 134 118 103 99 86 91 91 85 82 83 80 75 69 63
318 316 41 73 86 72 279 101 127 158 168 241 255 169 329 35 115 143 130 205 144 149 156 164 165 164 162 158 156 157 160 164 161 163 164 152 110 100 89 92 98 101 95 103 90 80 71 65 62
298 223 75 102 122 152 187 16 129 167 151 116 3 13 216 157 113 159 228 162 130 148 156 161 166 169 167 164 163 164 163 167 171 171 169 143 120 117 112 109 118 177 151 125 110 93 82 70 70
12 9 16 84 231 260 119 15 46 26 40 74 120 303 304 304 140 162 150 149 138 152 159 157 167 172 167 167 169 172 172 170 172 173 173 159 134 138 151 152 181 165 159 143 127 113 95 84 74
30 63 35 350 280 181 101 106 74 348 298 174 146 287 301 25 106 120 139 152 154 150 158 161 167 174 171 173 175 173 174 178 178 172 166 160 134 148 182 173 182 175 165 156 139 133 124 107 89
10 89 37 285 295 289 117 127 68 333 306 195 159 7 273 76 95 165 144 164 164 152 152 166 169 170 174 174 177 176 178 190 195 173 166 172 128 154 187 194 191 180 178 163 152 144 129 117 102
105 72 231 293 285 327 145 84 82 357 9 340 277 320 4 39 65 158 154 169 172 158 142 155 170 181 178 181 182 180 184 191 187 169 176 140 153 180 200 202 202 193 188 171 163 158 152 145 123
97 92 303 279 294 273 192 121 146 112 257 247 113 272 283 199 171 144 148 164 187 171 157 165 172 178 186 193 187 183 192 197 177 171 160 134 150 165 199 191 204 200 192 178 172 170 161 151 138
59 58 264 261 8 306 0 15 1 330 238 238 224 209 234 129 136 125 141 181 200 201 192 168 173 180 182 185 193 181 190 183 177 172 158 126 150 165 177 174 204 214 196 181 175 174 162 142 140
101 129 232 166 171 308 283 86 295 7 309 287 291 294 145 156 188 177 196 206 202 215 210 196 171 178 178 192 181 187 183 177 172 171 159 148 159 167 154 187 200 217 175 175 183 177 155 131 136
189 199 225 296 340 352 315 332 339 352 282 230 259 268 223 201 213 213 221 208 207 205 198 189 185 174 177 186 163 172 170 164 173 177 168 169 163 153 174 182 195 177 147 149 166 155 136 199 220
208 229 232 267 320 314 298 295 307 236 255 260 271 264 274 279 233 231 232 225 219 203 206 199 188 178 178 174 169 170 171 172 177 177 177 168 166 164 168 181 176 167 164 162 158 168 197 245 208
212 239 312 317 294 263 281 250 251 260 264 277 281 292 291 278 276 251 223 226 221 224 203 197 183 185 183 175 165 176 182 182 178 176 181 174 175 169 159 177 166 165 163 167 177 191 208 217 201
298 330 288 279 266 260 247 263 19 274 311 307 307 308 325 308 283 282 266 248 214 220 210 187 180 180 164 167 172 165 167 170 170 174 184 186 181 173 167 175 179 179 180 176 174 181 189 209 196
324 329 311 260 268 226 162 308 230 256 299 299 300 326 325 318 43 37 37 42 22 1 304 178 174 162 166 170 171 162 176 167 179 180 186 185 172 162 159 170 181 191 184 173 169 189 178 182 192
313 350 303 285 154 306 81 261 264 266 319 296 330 324 314 57 43 36 38 40 33 36 27 21 106 153 149 155 155 152 158 166 184 176 171 179 170 166 161 175 191 180 164 163 171 173 197 209 197
279 232 213 307 346 121 176 250 265 284 279 279 315 298 71 64 46 34 27 30 30 32 34 35 38 69 107 100 113 128 150 135 178 145 152 172 171 168 161 179 186 169 165 169 175 176 156 200 220
226 215 276 252 271 268 228 247 272 287 273 251 293 33 83 70 52 48 38 27 31 33 32 38 38 24 40 57 56 44 39 23 43 125 169 177 181 177 164 172 178 166 163 173 168 162 181 169 172
267 269 258 265 280 299 279 288 283 262 287 315 316 113 90 70 61 49 40 35 32 33 35 30 33 21 28 12 38 40 34 6 3 343 143 193 191 197 187 189 186 173 185 190 183 153 183 213 149
226 243 263 276 280 326 286 297 276 288 280 93 111 78 75 75 60 45 40 38 37 34 34 35 34 29 25 24 4 32 38 46 56 6 358 335 265 222 209 189 199 189 163 183 186 172 167 180 178
279 238 236 252 297 280 304 302 292 52 76 77 74 85 73 69 69 58 49 40 40 37 29 35 33 32 29 25 28 21 17 20 16 358 1 338 308 244 215 214 193 196 185 198 197 191 182 200 220
254 248 221 244 82 237 63 277 291 58 84 71 78 78 82 74 66 60 49 47 41 31 28 35 35 36 33 28 36 43 52 25 353 335 331 349 1 316 249 215 212 207 193 197 200 200 203 156 204
227 99 166 193 192 48 288 104 267 119 86 98 87 84 77 75 74 66 53 46 39 37 34 31 42 37 29 36 40 41 40 29 354 9 2 357 354 0 335 297 231 222 212 217 198 195 203 198 204
146 35 311 93 117 64 266 165 287 165 172 124 100 91 84 74 73 69 62 50 38 26 21 30 30 34 24 29 34 35 31 19 23 14 13 359 352 348 356 343 316 282 229 225 214 212 206 216 225
84 75 317 352 17 221 189 55 245 9 84 124 120 101 91 83 64 54 43 41 38 31 21 28 28 25 17 22 28 30 22 26 30 21 7 358 349 349 346 343 335 318 290 258 228 216 218 217 225
171 172 169 219 211 230 11 254 322 104 95 99 97 103 95 79 80 71 60 49 45 37 30 25 30 29 19 13 9 9 17 10 8 18 17 2 349 327 328 333 328 322 313 298 266 235 225 222 231
177 174 192 163 48 60 210 268 105 110 104 110 106 97 100 99 90 87 76 76 70 61 47 52 46 51 46 38 14 9 351 345 346 6 1 347 336 332 332 326 319 321 307 284 285 271 251 235 228
107 153 48 12 295 258 264 239 216 164 143 125 116 121 125 125 112 107 99 94 84 69 45 36 27 34 28 15 1 276 276 311 357 5 348 333 324 330 329 329 326 316 305 300 292 284 265 247 248
36 204 192 164 164 192 252 250 201 142 149 142 169 175 160 143 141 130 121 115 117 135 132 149 6 359 302 303 308 328 319 319 314 289 286 293 307 315 319 317 316 314 313 309 301 285 272 263 262
180 213 170 168 240 243 218 251 152 144 153 165 193 168 159 154 160 166 171 156 123 347 327 320 319 332 290 284 302 314 311 297 285 283 273 262 261 266 269 287 295 302 306 305 303 297 289 278 273